Location: Islip
(40.7298°N, 73.2104°W)
Time: 06:44:52
(UTC+00:00)

Daily predictions for brighter satellites

Satellite Brightness Start Highest point End
(mag) Time Altitude Azimuth Time Altitude Azimuth Time Altitude Azimuth
Nadezhda 3 Rocket 4.3 22:16:33 10° N 22:22:36 47° ENE 22:28:39 10° SSE
COSMOS 2428 2.8 22:18:03 10° NNW 22:23:46 63° ENE 22:29:26 10° SE
SJ 16-02 4.0 22:23:11 10° W 22:25:49 15° WNW 22:28:28 10° NNW
Starlink K 4.5 22:23:23 10° W 22:25:56 25° NNW 22:28:30 10° NNE
NOSS 0 Rocket 4.3 22:21:58 10° NNW 22:27:53 43° ENE 22:33:43 10° SE
ERBS 3.4 22:25:16 10° S 22:28:10 28° SE 22:31:04 10° ENE
Cosmos 1048 Rocket 3.9 22:25:24 10° NNW 22:30:32 64° ENE 22:35:35 10° SSE
Timation 2 Rocket 4.1 22:26:04 10° SSW 22:32:07 85° WNW 22:38:27 10° NNE
Shenzhou-11 Module 4.1 22:33:14 10° S 22:34:39 13° SSE 22:36:04 10° ESE
Cosmos 2341 Rocket 4.4 22:35:24 10° SSE 22:41:21 43° E 22:47:18 10° NNE
SKYMED 2 3.8 22:39:33 10° NNE 22:43:47 50° E 22:48:01 10° S
SMAP 4.2 22:45:01 10° S 22:49:30 49° W 22:54:01 10° NNW
Cosmos 1300 2.7 22:48:24 10° N 22:52:14 85° W 22:56:03 10° S
Meteor 2-10 Rocket 4.4 22:50:19 10° NNE 22:54:46 26° ENE 22:59:04 10° SE
USA 116 4.1 22:53:28 14° NE 22:55:36 27° E 22:58:17 10° SSE
Cosmos 1812 Rocket 3.5 22:51:14 10° N 22:55:43 78° E 23:00:10 10° S
Meteor 2-17 Rocket 4.4 22:51:14 10° S 22:57:20 72° E 23:03:28 10° NNE
ADEOS Rocket 4.1 22:54:09 10° NE 22:59:48 28° E 23:05:51 10° SSE
Cosmos 1242 Rocket 4.1 22:56:54 10° SW 23:00:08 36° WNW 23:03:26 10° N
YAOGAN 1 2.9 22:57:07 10° SE 23:01:11 42° ENE 23:05:17 10° N
Cosmos 1340 Rocket 2.7 22:59:44 10° N 23:03:43 89° WSW 23:07:41 10° S
Ariane Rocket 4.2 23:00:24 11° ESE 23:03:52 21° ENE 23:07:34 10° NNE
Cosmos 724 4.3 22:59:17 10° SSW 23:05:16 76° ESE 23:10:59 11° NE
Cosmos 1626 3.5 23:01:50 10° SSW 23:05:21 41° WNW 23:08:53 10° N
Cosmos 494 Rocket 3.8 23:00:42 10° NNW 23:05:50 75° ENE 23:10:56 10° SSE
YAOGAN 6 2.8 23:03:00 10° S 23:06:41 74° WSW 23:10:23 10° NNW
Cosmos 1455 3.1 23:04:55 10° NNE 23:08:11 26° ENE 23:11:24 10° SE
Cosmos-2242 3.3 23:07:02 10° N 23:11:10 41° ENE 23:15:13 10° SSE
Cosmos 2237 Rocket 2.2 23:05:51 10° NNW 23:11:26 59° ENE 23:16:58 10° SE
Cosmos 2333 Rocket 3.3 23:07:00 10° NW 23:12:29 48° WSW 23:17:51 10° S
Cosmos 2218 Rocket 4.2 23:08:14 10° SSE 23:14:13 47° E 23:20:17 10° NNE
BREEZE-M DEB (TANK) 2.3 23:14:43 10° WSW 23:17:04 56° NNW 23:17:43 37° NNE
Meteor 1-21 Rocket 4.1 23:15:31 10° S 23:21:04 83° E 23:26:46 10° N
CSL-04 Rocket 3.6 23:17:15 10° SSE 23:22:40 69° ENE 23:28:11 10° N
Cosmos 1241 Rocket 4.4 23:16:39 10° NNW 23:22:53 83° ENE 23:29:09 10° SSE
Cosmos 1939 Rocket 2.8 23:19:53 10° SSE 23:23:39 52° ENE 23:27:30 10° N
Cosmos 2251 Rocket 4.5 23:21:49 10° N 23:25:53 26° NE 23:25:53 26° NE
USA 32 4.3 23:24:07 10° S 23:29:19 71° W 23:34:34 10° N
Cosmos 1953 Rocket 3.5 23:27:16 10° S 23:31:43 68° E 23:35:51 12° NNE
COSMO-SKYMED 1 3.6 23:27:42 10° N 23:31:52 46° WNW 23:36:00 10° SW
SL-16 R/B 2.8 23:27:08 10° N 23:32:16 34° ENE 23:33:09 32° ENE
DMSP B5D1-3 4.4 23:28:19 10° NNE 23:33:25 68° ESE 23:38:29 10° S
Cosmos 2219 3.6 23:28:57 10° SW 23:34:29 62° WNW 23:40:05 10° NNE
DELTA 2 R/B (1) 3.6 23:29:06 10° WSW 23:34:41 74° S 23:37:08 35° E
Cosmos 1758 Rocket 4.0 23:32:42 10° SSW 23:36:58 60° W 23:41:14 10° N
Cosmos 2082 3.7 23:32:35 10° S 23:38:00 54° ESE 23:40:30 31° NE
ISS -3.8 23:35:17 10° SW 23:38:37 68° SE 23:38:38 68° SE
Cosmos 1959 Rocket 4.3 23:34:18 10° S 23:40:29 74° E 23:46:36 10° N
NOSS 2-1 (C) 4.5 23:40:38 10° NNW 23:46:12 66° NE 23:52:14 17° SE
Cosmos 1703 3.1 23:44:06 10° S 23:48:02 78° E 23:48:38 62° NNE
Cosmos 2297 Rocket 2.5 23:43:50 10° SSW 23:49:27 67° WNW 23:54:00 16° NNE
NOSS 2-1 (D) 4.5 23:44:25 10° NNW 23:50:01 70° NE 23:56:11 17° SE
Cosmos 2366 rocket 3.9 23:44:37 10° S 23:50:48 86° E 23:57:06 10° N
CZ-4 R/B 2.9 23:47:50 10° SSW 23:51:33 37° W 23:55:22 10° NNW
Cosmos 1980 4.3 23:47:54 10° NNW 23:53:29 59° WSW 23:59:02 10° S
